Weather History for Worland, WY

Change the Weather History Date:

Tuesday, October 15, 2013

  Actual Average Record
Temperature  
Mean Temperature 37 °F 46 °F  
Max Temperature 44 °F 61 °F 79 °F (1965)
Min Temperature 30 °F 31 °F 19 °F (1970)
Degree Days  
Heating Degree Days 28 19  
Month to date heating degree days 337 246  
Since 1 July heating degree days 483 503  
Cooling Degree Days 0 0  
Month to date cooling degree days 0 0  
Year to date cooling degree days 852 535  
Moisture  
Dew Point 29 °F    
Average Humidity 69    
Maximum Humidity 89    
Minimum Humidity 49    
Precipitation  
Precipitation 0.00 in 0.03 in 0.38 in (1980)
Month to date precipitation 1.63 0.43  
Year to date precipitation 7.47 6.73  
Sea Level Pressure  
Sea Level Pressure 30.35 in    
Wind  
Wind Speed 4 mph (North)    
Max Wind Speed 14 mph    
Max Gust Speed 17 mph    
Visibility 10 miles    
Events      
T = Trace of Precipitation, MM = Missing Value Source: NWS Daily Summary

Daily Weather History Graph

Daily Weather History Graph

Search for Another Location

Airport:

Trip Planner

Search our weather history database for the weather conditions in past years. The results will help you decide how hot, cold, wet, or windy it might be!

Date:

Astronomy

Oct. 15, 2013 Rise Set
Actual Time 7:26 AM MDT 6:27 PM MDT
Civil Twilight 6:57 AM MDT 6:56 PM MDT
Nautical Twilight 6:24 AM MDT 7:29 PM MDT
Astronomical Twilight 5:50 AM MDT 8:03 PM MDT
Moon 4:39 PM MDT (10/15) 3:46 AM MDT (10/15)
Length of Visible Light 11h 58m
Length of Day
11h 00m
Waxing Gibbous, 88% of the Moon is Illuminated
Oct 15
Waxing Gibbous
Oct 18
Full
Oct 26
Last Quarter
Nov 3
New
Nov 9
First Quarter

Hourly Weather History & Observations

Time (MDT) Temp. Windchill Dew Point Humidity Pressure Visibility Wind Dir Wind Speed Gust Speed Precip Events Conditions
12:53 AM 36.0 °F 28.5 °F 30.9 °F 82% 30.41 in 10.0 mi WNW 10.4 mph - N/A   Overcast
1:53 AM 35.1 °F 27.9 °F 32.0 °F 89% 30.42 in 10.0 mi WNW 9.2 mph - N/A   Overcast
2:53 AM 36.0 °F 28.5 °F 30.9 °F 82% 30.41 in 10.0 mi NW 10.4 mph - N/A   Overcast
3:53 AM 36.0 °F 30.3 °F 30.9 °F 82% 30.41 in 10.0 mi WNW 6.9 mph - N/A   Overcast
4:53 AM 36.0 °F 33.3 °F 30.0 °F 79% 30.40 in 10.0 mi WNW 3.5 mph - N/A   Overcast
5:53 AM 35.1 °F - 30.0 °F 82% 30.41 in 10.0 mi Calm Calm - N/A   Overcast
6:53 AM 33.1 °F - 30.0 °F 89% 30.42 in 10.0 mi Calm Calm - N/A   Overcast
7:53 AM 33.1 °F - 30.0 °F 89% 30.42 in 10.0 mi Calm Calm - N/A   Overcast
8:53 AM 36.0 °F - 30.9 °F 82% 30.42 in 10.0 mi Calm Calm - N/A   Mostly Cloudy
9:53 AM 37.0 °F - 30.0 °F 76% 30.43 in 10.0 mi Calm Calm - N/A   Mostly Cloudy
10:53 AM 39.9 °F - 28.9 °F 65% 30.41 in 10.0 mi Calm Calm - N/A   Partly Cloudy
11:53 AM 41.0 °F 39.0 °F 28.9 °F 62% 30.39 in 10.0 mi NNE 3.5 mph - N/A   Clear
12:53 PM 42.1 °F 40.2 °F 25.0 °F 51% 30.38 in 10.0 mi Variable 3.5 mph - N/A   Mostly Cloudy
1:53 PM 43.0 °F 38.8 °F 27.0 °F 53% 30.34 in 10.0 mi NNW 6.9 mph - N/A   Mostly Cloudy
2:53 PM 43.0 °F 38.8 °F 26.1 °F 51% 30.31 in 10.0 mi NNW 6.9 mph - N/A   Mostly Cloudy
3:53 PM 44.1 °F 40.1 °F 27.0 °F 51% 30.30 in 10.0 mi Variable 6.9 mph - N/A   Scattered Clouds
4:53 PM 43.0 °F - 25.0 °F 49% 30.28 in 10.0 mi Calm Calm - N/A   Clear
5:53 PM 42.1 °F 40.2 °F 26.1 °F 53% 30.27 in 10.0 mi East 3.5 mph - N/A   Clear
6:53 PM 35.1 °F 29.3 °F 28.9 °F 78% 30.30 in 10.0 mi ESE 6.9 mph - N/A   Clear
7:53 PM 35.1 °F 27.4 °F 28.9 °F 78% 30.30 in 10.0 mi SE 10.4 mph - N/A   Clear
8:53 PM 32.0 °F 24.2 °F 28.0 °F 85% 30.29 in 10.0 mi SE 9.2 mph - N/A   Clear
9:53 PM 30.9 °F 24.3 °F 27.0 °F 85% 30.28 in 10.0 mi SE 6.9 mph - N/A   Clear
10:53 PM 30.9 °F - 27.0 °F 85% 30.26 in 10.0 mi Calm Calm - N/A   Clear
11:53 PM 30.9 °F 25.2 °F 27.0 °F 85% 30.25 in 10.0 mi SE 5.8 mph - N/A   Clear